Terug naar catalogus

STARLINK-30284

ActiefCommunicatieVLEO
NORAD 57877·PAYLOAD·🇺🇸 United States

Gelanceerd Sep 16, 2023 vanaf Cape Canaveral Space Force Station

Loading…

Volgende Passages (komende 24 uur)

TLE

VersSource: CelesTrak SupGP

Epoch: Sep 14, 2026, 21:11 UTC

1 57877C 23144P   26257.88312500  .00031465  00000+0  11398-2 0  2576
2 57877  42.9998 260.0949 0001495 259.6544  89.6794 15.27558850    11

Volg STARLINK-30284 in realtime met AllMySat

Download on the App Store